Home   Weather   Forchheim   Past weeks

Flag for Germany Past Weather in Forchheim, Bavaria, Germany — Yesterday and Last 2 Weeks

Now
45 °F

Partly sunny.


Feels Like: 40 °F
Forecast: 36 / 55 °F
Wind: 8 mph from Southeast

Location: Nuernberg

Current Time: Feb 26, 2017 at 11:30:11 am

Latest Report: Feb 26, 2017 at 10:50 am


Visibility: N/A

Pressure: 30.01 "Hg

Humidity: 57%

Dew Point: 30 °F

Location of ForchheimLocation

Past Weather in Forchheim — Graph

°F

Forchheim Temperature Yesterday

Maximum temperature yesterday: 48 °F (at 3:20 pm)
Minimum temperature yesterday: 23 °F (at 5:50 am)
Average temperature yesterday: 35 °F

High & Low Weather Summary for the Past Weeks

 TemperatureHumidityPressure
High61 °F (Feb 23, 3:20 pm)100% (Feb 16, 6:50 am)30.57 "Hg (Feb 16, 6:50 am)
Low23 °F (Feb 25, 5:50 am)34% (Feb 23, 5:20 pm)29.42 "Hg (Feb 23, 4:50 pm)
Average40 °F78%30.17 "Hg
* Reported Feb 11 10:20 am — Feb 26 10:20 am, Forchheim, Weather by CustomWeather, © 2017

Note: Actual official high and low records may vary slightly from our data, if they occured in-between our weather recording intervals... More about our weather records

Advertising

Forchheim Weather History for the Previous 24 Hours

Scroll right to see more
 ConditionsComfort  
Time TempWeatherWind HumidityBarometerVisibility
10:20 am
Sun, Feb 26
43 °FPassing clouds.6 mph61%30.04 "HgN/A
9:50 am43 °FPassing clouds.5 mph61%30.04 "HgN/A
9:20 am41 °FPassing clouds.5 mph66%30.04 "HgN/A
8:50 am39 °FSunny.5 mph70%30.04 "Hg10 mi
8:20 am37 °FSunny.3 mph75%30.04 "Hg10 mi
7:50 am36 °FSunny.6 mph81%30.01 "Hg10 mi
7:20 am34 °FSunny.5 mph81%30.01 "Hg10 mi
6:50 am34 °FClear.6 mph81%30.01 "Hg10 mi
6:20 am34 °FClear.3 mph75%30.01 "Hg10 mi
5:50 am36 °FClear.3 mph70%30.01 "Hg10 mi
5:20 am34 °FClear.5 mph75%30.01 "Hg10 mi
4:50 am34 °FClear.3 mph75%30.01 "Hg10 mi
4:20 am34 °FClear.5 mph75%30.04 "Hg10 mi
3:50 am34 °FClear.5 mph75%30.04 "Hg10 mi
3:20 am34 °FClear.5 mph75%30.04 "Hg10 mi
2:50 am36 °FClear.3 mph70%30.04 "Hg10 mi
2:20 am36 °FClear.5 mph70%30.07 "Hg10 mi
1:50 am36 °FClear.2 mph70%30.07 "Hg10 mi
1:20 am36 °FPassing clouds.3 mph70%30.07 "HgN/A
12:50 am36 °FClear.5 mph70%30.07 "Hg10 mi
12:20 am36 °FClear.5 mph70%30.07 "Hg10 mi
11:50 pm
Sat, Feb 25
37 °FPassing clouds.6 mph65%30.09 "HgN/A
11:20 pm36 °FClear.3 mph70%30.09 "Hg10 mi
10:50 pm36 °FPassing clouds.3 mph70%30.09 "HgN/A
10:20 pm37 °FClear.5 mph65%30.09 "Hg10 mi
9:50 pm36 °FClear.6 mph70%30.09 "Hg10 mi
9:20 pm34 °FClear.6 mph70%30.09 "Hg10 mi
8:50 pm37 °FClear.6 mph65%30.12 "Hg10 mi
8:20 pm39 °FClear.1 mph56%30.12 "Hg10 mi
7:50 pm39 °FClear.2 mph56%30.12 "Hg10 mi
7:20 pm41 °FClear.3 mph53%30.12 "Hg10 mi
6:50 pm41 °FClear.2 mph53%30.12 "Hg10 mi
6:20 pm43 °FClear.2 mph53%30.12 "Hg10 mi
5:50 pm43 °FPassing clouds.5 mph53%30.12 "HgN/A
5:20 pm46 °FPassing clouds.7 mph46%30.12 "HgN/A
4:50 pm46 °FPassing clouds.6 mph46%30.12 "HgN/A
4:20 pm46 °FPassing clouds.7 mph46%30.12 "HgN/A
3:50 pm46 °FPassing clouds.8 mph43%30.15 "HgN/A
3:20 pm48 °FPartly sunny.9 mph43%30.15 "HgN/A
2:50 pm46 °FPartly sunny.8 mph43%30.15 "HgN/A
2:20 pm46 °FPartly sunny.8 mph46%30.15 "HgN/A
1:50 pm46 °FPartly sunny.7 mph43%30.18 "HgN/A
1:20 pm45 °FPartly sunny.8 mph49%30.18 "HgN/A
12:50 pm45 °FPartly sunny.8 mph57%30.21 "HgN/A
12:20 pm43 °FPartly sunny.6 mph61%30.21 "HgN/A
11:50 am41 °FPartly sunny.5 mph66%30.24 "HgN/A
11:20 am39 °FPassing clouds.3 mph70%30.24 "HgN/A
Weather by CustomWeather, © 2017

See weather overviewHow to use our weather pages